Location: Taukkyan
(23.1052°N, 94.0030°E)
Time: 11:36:35
(UTC+00:00)

GPS 2-14 Rocket1 - Pass Details

Date: 06 July 2020
Orbit: 476 x 541 km, 20.7° (Epoch: 14 August)

Event Time Altitude Azimuth Distance (km) Brightness Sun altitude
Exits shadow 22:07:10 19° 250° (WSW) 1,319 4.1 -12.4°
Maximum altitude 22:10:00 58° 175° (S) 622 2.9 -11.8°
Drops below altitude 10° 22:14:06 10° 96° (E) 1,787 6.3 -11.0°
Sets 22:16:24 0° 92° (E) 2,677 7.4 -10.6°
